Location: Melbourne
(37.8120°S, 144.9677°E)
Time: 22:49:51
(UTC+11:00)

Daily predictions for brighter satellites

Satellite Brightness Start Highest point End
(mag) Time Altitude Azimuth Time Altitude Azimuth Time Altitude Azimuth
BREEZE-M DEB (TANK) 4.0 20:54:45 10° WNW 20:58:43 68° SSW 21:11:19 10° ESE
BREEZE-M DEB (TANK) 4.4 20:57:18 10° W 21:00:13 49° SSW 21:08:21 10° SE
Cosmos 2058 Rocket 3.5 21:00:13 10° NNW 21:04:36 69° W 21:09:02 10° S
FengYun 1-2 T 4.4 21:01:34 10° SSE 21:07:05 53° E 21:12:33 10° N
HJ-1C 3.3 21:04:37 10° SSE 21:07:58 79° ENE 21:11:16 10° N
Cosmos 1992 Rocket 4.2 21:05:19 10° SSW 21:10:35 63° ESE 21:15:48 10° NNE
Lacrosse 5 rocket 2.1 21:07:11 10° SSW 21:10:52 38° SE 21:14:22 10° ENE
Resurs 01 Rocket 1.7 21:07:31 10° SSE 21:11:58 64° ENE 21:16:22 10° N
Cosmos 2228 3.4 21:08:14 10° NNW 21:12:40 75° W 21:17:10 10° S
Cosmos 2098 Rocket 3.3 21:12:53 10° NNE 21:15:24 25° E 21:18:08 10° SSE
H-2A R/B 3.0 21:14:47 10° SSE 21:18:29 47° E 21:22:09 10° N
Resurs 1-3 3.6 21:17:58 10° SSE 21:22:26 68° ENE 21:26:49 10° N
Cosmos 1697 Rocket 3.0 21:17:25 10° SSW 21:23:00 55° ESE 21:28:20 11° NE
SL-16 R/B 4.3 21:20:24 10° SSE 21:23:06 13° SE 21:25:47 10° ESE
Cosmos 1833 Rocket 2.8 21:18:57 10° NNW 21:24:34 84° WSW 21:30:16 10° SSE
Spot 1 4.1 21:20:49 10° SSE 21:25:07 67° ENE 21:29:35 10° N
COSMOS 2455 4.2 21:22:15 10° S 21:27:14 26° SE 21:32:12 10° ENE
Cosmos 1346 3.0 21:24:38 10° S 21:27:37 63° E 21:30:26 11° NNE
Cosmos 1656 3.6 21:22:53 10° SSW 21:28:25 85° ESE 21:33:52 10° NNE
ATLAS 5 CENTAUR R/B 2.0 21:23:18 10° SSW 21:28:30 64° SE 21:32:43 13° NE
ALOS 2.4 21:29:05 10° S 21:33:51 83° WSW 21:38:33 10° NNW
Cosmos 2082 Rocket 3.0 21:29:25 10° NW 21:35:04 59° WSW 21:40:47 10° SSE
USA 238 DEB 4.3 21:29:41 10° SSW 21:36:35 49° SE 21:42:30 14° ENE
USA 238 4.3 21:29:47 10° SSW 21:36:41 48° SE 21:42:34 14° ENE
ERS-1 Rocket 4.5 21:33:22 10° SE 21:36:52 18° E 21:39:01 14° ENE
ATLAS 3B R/B 2.9 21:30:40 10° SSW 21:37:57 80° ESE 21:44:39 14° NE
USA 186 1.8 21:35:52 10° SSE 21:39:13 64° E 21:42:21 10° N
Meteor 2-5 Rocket 3.7 21:37:59 10° S 21:43:38 89° W 21:49:11 10° N
Cosmos 1812 Rocket 3.6 21:39:22 10° N 21:43:48 88° W 21:48:19 10° S
Meteor 1-24 Rocket 3.9 21:39:22 10° S 21:44:46 52° ESE 21:48:56 16° NNE
Cosmos 1802 Rocket 4.0 21:39:01 10° N 21:45:21 78° E 21:51:41 10° S
Meteor 1-22 Rocket 4.2 21:40:25 10° N 21:45:35 56° E 21:50:50 10° SSE
Cosmos 1607 4.3 21:39:24 10° SSW 21:45:38 55° SE 21:50:24 17° NE
FENGYUN 3A 3.9 21:40:43 10° S 21:46:13 75° WSW 21:51:37 10° NNW
SEDSat Delta rocket 3.8 21:43:34 10° NW 21:47:15 30° NNE 21:49:41 18° ENE
Cosmos 407 Rocket 3.6 21:43:23 10° NNW 21:48:41 87° WSW 21:54:07 10° SSE
CZ-2D R/B 3.5 21:48:17 10° S 21:52:10 71° WSW 21:56:01 10° NNW
Exosat Rocket 3.6 21:47:52 10° SSW 21:53:17 66° ESE 21:56:50 19° NNE
Atlas Centaur 2 2.5 21:49:51 10° WNW 21:54:05 36° N 21:57:20 19° ENE
Cosmos 2100 Rocket 4.3 21:48:11 10° NNW 21:54:19 71° W 22:00:33 10° S
BREEZE M DEB (TANK) 4.4 21:53:49 10° SW 21:56:15 18° S 21:57:56 10° ESE
SL-19 R/B 4.3 21:56:59 10° SSE 21:59:43 35° ENE 22:00:23 30° NE
Cosmos 676 Rocket 4.0 21:55:27 10° NNW 22:00:40 85° ENE 22:06:00 10° SSE
Abrixas rocket 3.5 21:57:55 10° SW 22:01:05 36° SSE 22:03:08 18° E
Okean 3 Rocket 3.8 21:57:19 10° S 22:01:52 59° E 22:04:35 23° NNE
BREEZE-M DEB (TANK) 4.4 21:57:38 10° SW 22:02:15 64° SE 22:17:25 14° ENE
deb Chang Zheng 4 4.3 21:58:07 10° N 22:02:25 53° W 22:06:46 10° SSW
Blok-2BL 4.3 22:01:56 10° S 22:03:07 16° SE 22:03:07 16° SE
Cosmos 1954 Rocket 3.9 21:59:34 10° N 22:04:46 72° ENE 22:10:04 10° SSE
YAOGAN 6 4.3 22:02:47 10° SE 22:05:05 18° E 22:05:05 18° E
Cosmos 1953 3.2 22:05:48 26° ENE 22:06:58 31° E 22:10:35 10° SSE
GPS 2-04 Rocket1 2.4 22:05:58 10° WNW 22:09:37 59° N 22:11:05 31° ENE
Cosmos 1544 4.2 22:09:02 26° ENE 22:09:38 28° E 22:12:54 10° SSE
Cosmos 1758 4.0 22:09:50 28° NE 22:11:16 38° E 22:15:08 10° SSE
CZ-4C R/B 2.9 22:07:30 10° SW 22:12:51 45° WNW 22:16:26 18° N
Cosmos 2084 Rocket 3.9 22:08:35 10° SW 22:13:27 67° WNW 22:16:01 26° NNE
Cosmos 1140 Rocket 3.4 22:12:47 12° N 22:17:36 68° ENE 22:22:48 10° SSE
CZ-4B R/B 3.4 22:14:40 22° NNE 22:17:52 85° WNW 22:22:56 10° SSW
Cosmos 1023 Rocket 4.4 22:16:50 11° N 22:21:41 75° ENE 22:26:54 10° SSE
SPOT 5 4.1 22:18:01 10° SE 22:22:24 27° E 22:23:20 25° ENE
Cosmos 1766 3.9 22:21:54 13° NNW 22:25:26 57° W 22:29:29 10° S
Cosmos 1939 Rocket 2.7 22:22:14 10° SSE 22:26:16 78° ENE 22:28:14 29° N
Cosmos 1850 Rocket 4.2 22:23:51 24° N 22:26:54 54° ENE 22:32:10 10° SSE
Cosmos 2360 4.2 22:21:47 10° SSW 22:27:36 86° ESE 22:30:37 30° NNE
OAO 3 Rocket 3.1 22:24:20 10° WNW 22:28:58 62° N 22:30:55 33° ENE
Cosmos 1378 4.0 22:26:44 10° SSW 22:30:24 46° W 22:32:28 23° NNW
Cosmos 1741 Rocket 4.1 22:27:56 27° N 22:30:41 56° ENE 22:35:50 10° SSE
NOSS 3-4 (A) 3.9 22:23:12 10° NNW 22:30:52 65° ENE 22:38:29 10° SE
NOSS 3-4 (C) 3.9 22:23:19 10° NNW 22:30:58 65° ENE 22:38:35 10° SE
NOSS 3-2 (A) 4.0 22:24:49 10° SSW 22:31:10 48° SE 22:34:20 26° ENE
CZ-4 R/B 4.1 22:28:22 25° N 22:31:16 71° WNW 22:36:19 10° SSW
Cosmos 1805 3.2 22:30:58 39° N 22:32:22 76° E 22:36:23 10° S
Cosmos 1437 Rocket 3.4 22:32:51 35° E 22:32:53 35° E 22:36:28 10° SSE
Lacrosse 5 4.5 22:31:05 10° S 22:33:20 13° SSE 22:35:34 10° SE
Cosmos 1816 Rocket 4.5 22:27:17 10° S 22:33:32 71° E 22:36:42 30° NNE
Cosmos 1470 4.0 22:35:04 27° E 22:35:04 27° E 22:38:10 10° SSE
Cosmos 2360 Rocket 4.0 22:31:12 10° S 22:35:18 20° SE 22:37:56 15° E
Cosmos 1980 Rocket 2.6 22:30:22 10° SSW 22:36:02 60° WNW 22:39:11 26° N
Cosmos 2322 Rocket 2.6 22:31:15 10° SSW 22:36:49 50° ESE 22:39:06 32° ENE
DMSP B5D2-2 4.3 22:34:21 26° N 22:37:24 71° WNW 22:42:46 10° SSW
Cosmos 1743 Rocket 4.4 22:40:49 10° SSE 22:44:53 34° ESE 22:45:20 33° E
Cosmos 405 3.0 22:46:13 62° E 22:46:14 62° E 22:49:54 10° SSE
RESURS DK-1 3.6 22:49:48 28° ESE 22:49:48 28° ESE 22:52:28 10° SE
Lacrosse 5 rocket 3.0 22:47:05 10° WSW 22:49:48 19° WNW 22:50:20 18° NW
Envisat 3.4 22:47:10 10° S 22:52:17 64° WSW 22:55:56 19° NNW
Cosmos 2233 Rocket 4.0 22:48:41 25° N 22:52:37 89° W 22:59:03 10° S
Cosmos 1408 Rocket 3.5 22:49:34 10° S 22:53:58 82° W 22:55:00 52° N
Cosmos 2285 Rocket 4.2 22:49:30 10° SSW 22:55:56 70° WNW 22:58:55 33° N
Tsikada Rocket 4.4 22:52:07 10° SSW 22:58:17 59° W 23:01:53 25° NNW
deb Kosmos-1763 4.4 22:58:45 47° NW 22:59:40 68° WSW 23:03:31 10° SSE
Cosmos 1570 Rocket 3.9 23:00:27 10° SSW 23:05:46 87° WNW 23:07:07 52° NNE
CENTAUR R/B 4.2 23:02:57 10° S 23:07:35 21° SE 23:11:04 13° E
SL-16 R/B 2.1 23:02:17 10° SSW 23:08:03 88° ESE 23:09:37 50° NNE
ATLAS 5 CENTAUR R/B 4.1 23:10:01 10° WSW 23:12:25 14° WNW 23:14:17 11° NW
COSMOS 2455 3.3 23:07:36 10° SW 23:13:27 51° WNW 23:15:24 37° NNW
ERS-1 Rocket 3.9 23:10:57 10° S 23:15:51 47° WSW 23:19:01 20° NW
Cosmos-2242 3.7 23:15:31 37° NW 23:16:53 51° W 23:21:15 10° S
BREEZE-M DEB (TANK) 4.0 23:14:03 10° WNW 23:17:35 82° SSW 23:31:21 10° SE
USA 245 3.8 23:18:08 10° SSE 23:20:36 47° SSE 23:20:36 47° SSE
Cosmos 2151 4.0 23:17:42 10° S 23:21:21 36° ESE 23:21:21 36° ESE
MetOp-B 4.1 23:17:42 10° SSE 23:23:09 83° WSW 23:24:45 48° NNW
Cosmos 1500 Rocket 3.5 23:21:52 10° S 23:26:24 74° ESE 23:26:24 74° ESE
Cosmos 2221 4.0 23:28:27 27° ESE 23:28:27 27° ESE 23:31:10 10° SSE
Cosmos 2219 Rocket 4.5 23:25:11 10° SSE 23:28:01 14° SE 23:30:39 10° ESE
SeaSat 1 4.4 23:28:49 16° ESE 23:30:24 19° SE 23:33:48 10° S
SL-08 RB Rocket 3.7 23:25:49 10° SSE 23:30:20 71° E 23:30:20 71° E
Cosmos 468 Rocket 4.3 23:26:53 10° S 23:32:07 53° ESE 23:32:40 51° E
Cosmos 2208 Rocket 4.5 23:27:08 10° SSW 23:32:27 54° WNW 23:33:27 47° NW
Cosmos 2034 Rocket 4.0 23:33:11 54° NE 23:34:24 65° E 23:40:46 10° SSE
Terra 3.0 23:30:24 10° SSE 23:33:46 30° ESE 23:33:46 30° ESE
H-2A R/B 2.0 23:31:10 10° S 23:35:30 80° SW 23:35:30 80° SW
GEOS 3 Rocket 3.6 23:33:34 10° SSE 23:38:53 82° SW 23:40:29 46° NW
ARGOS 3.1 23:33:25 10° SSE 23:38:54 87° WSW 23:39:51 63° NNW
Cosmos 1674 3.8 23:35:24 10° SSW 23:38:48 40° W 23:38:48 40° W
Iridium 4 Rocket 3.5 23:36:10 10° S 23:41:09 64° E 23:41:15 64° E
Cosmos 724 4.3 23:36:54 10° SSW 23:42:41 69° ESE 23:43:33 59° ENE
Atlas Centaur 2 3.7 23:38:03 10° WNW 23:39:58 20° NW 23:39:58 20° NW
Meteor 1-16 Rocket 3.9 23:44:46 76° NNE 23:45:07 82° E 23:50:36 10° S
H-2A R/B 2.0 23:46:12 10° SSE 23:51:46 73° ENE 23:51:57 73° ENE
Meteor 2-1 Rocket 4.3 23:51:38 62° ENE 23:51:58 63° E 23:57:54 10° SSE
